Date,TemperatureHighF,TemperatureAvgF,TemperatureLowF,DewpointHighF,DewpointAvgF,DewpointLowF,HumidityHigh,HumidityAvg,HumidityLow,PressureMaxIn,PressureMinIn,WindSpeedMaxMPH,WindSpeedAvgMPH,GustSpeedMaxMPH,PrecipitationSumIn
2013-3-1,35,32,30,29,28,25,90,83,74,30.15,30.09,0,0,7,0.00
2013-3-2,32,30,26,28,26,22,90,86,78,30.18,30.07,3,0,11,0.00
2013-3-3,36,27,22,24,20,17,89,75,54,30.24,30.15,7,0,13,0.00
2013-3-4,56,39,25,32,22,17,75,54,31,30.34,30.18,3,0,7,0.00
2013-3-5,53,46,32,50,40,27,90,80,50,30.21,29.75,15,1,22,0.00
2013-3-6,33,29,26,27,24,20,89,82,70,30.36,29.95,10,1,20,0.00
2013-3-7,54,36,28,34,28,25,89,76,43,30.45,30.33,2,0,8,0.00
2013-3-8,61,39,23,32,22,16,91,60,19,30.49,30.39,1,0,11,0.00
2013-3-9,60,45,28,33,28,24,84,55,30,30.44,30.34,2,0,5,0.12
2013-3-10,67,55,48,42,34,29,66,47,32,30.34,30.17,3,0,10,0.00
2013-3-11,58,53,50,51,48,42,90,84,68,30.18,29.90,3,0,14,1.01
2013-3-12,54,43,34,47,34,30,91,74,47,30.23,29.93,4,0,10,0.03
2013-3-13,48,39,29,30,25,19,79,60,36,30.39,30.22,6,0,18,0.00
2013-3-14,52,35,23,28,17,11,79,52,21,30.51,30.39,2,0,12,0.00
2013-3-15,68,48,28,45,34,26,90,63,37,30.42,30.11,7,1,23,0.00
2013-3-16,71,62,49,48,43,41,73,51,37,30.10,29.95,20,2,21,0.00
2013-3-17,67,59,52,52,47,43,82,65,54,30.07,29.98,6,0,11,0.00
2013-3-18,57,51,46,52,47,43,90,87,75,30.04,29.91,7,0,11,0.50
2013-3-19,59,47,36,44,31,15,91,59,26,30.23,29.99,5,0,14,0.01
2013-3-20,55,43,36,30,17,6,77,37,20,30.25,30.01,5,0,15,0.00
2013-3-21,44,32,22,27,14,4,79,51,27,30.13,30.01,11,1,12,0.00
2013-3-22,49,38,28,34,22,12,69,55,38,30.21,30.13,1,0,2,0.00
2013-3-23,51,45,39,48,41,32,90,85,66,30.17,29.90,0,0,5,0.25
2013-3-24,53,47,37,50,44,32,91,87,80,29.96,29.58,14,1,22,1.98
2013-3-25,37,31,28,31,25,22,85,77,70,30.18,29.75,13,2,21,0.00
2013-3-26,37,31,27,28,25,22,87,79,64,30.43,30.17,6,0,18,0.00
2013-3-27,50,36,26,28,24,22,89,65,33,30.49,30.40,7,0,14,0.00
2013-3-28,57,42,27,31,25,21,80,54,31,30.48,30.38,5,0,13,0.00
2013-3-29,59,41,27,37,30,24,89,67,35,30.48,30.35,0,0,5,0.00
2013-3-30,67,53,41,50,42,36,90,69,36,30.35,30.14,4,0,13,0.34
2013-3-31,59,55,52,55,51,48,90,87,75,30.13,29.97,4,0,12,1.06